#timestamp,LO_Frequency,Hit,StdDev 
1513083615.4,286047004.4,N
1513083635.2,286047010.4,N
1513083655.0,286047007.3,N
1513083655.9,286047007.3,N
1513083675.8,286047004.7,N
1513083695.6,286047001.8,N
1513083715.4,286047006.6,N
1513083735.3,286047010.3,N
1513083755.1,286047012.1,N
1513083756.0,286047012.1,N
1513083775.8,286047015.0,Y
1513083795.7,286047006.8,P
1513083815.5,286047004.3,P
1513083835.3,286047005.7,P
1513083855.2,286047004.7,Y
1513083875.0,286046997.2,P
1513083875.9,286046997.2,N
1513083895.7,286047002.3,N
1513083915.6,286047004.4,N
1513083935.4,286047001.3,N
1513083955.2,286047001.9,N
1513083975.1,286047002.2,N
1513083976.0,286047002.2,N
1513083995.8,286047003.1,N
1513084015.6,286047007.6,N
1513084035.5,286047007.5,N
1513084055.3,286047007.3,N
1513084075.1,286047008.1,N
1513084095.8,286047009.9,N
1513084115.7,286047007.5,N
1513084135.5,286047007.4,N
1513084155.3,286047010.6,N
1513084175.2,286047008.1,N
1513084195.9,286047010.2,N
1513084215.7,286047006.5,N
1513084235.6,286047007.7,N
1513084255.4,286047008.6,N
1513084275.2,286047005.0,N
1513084295.1,286047003.0,N
1513084296.0,286047003.0,N
1513084315.8,286047000.1,N
1513084335.6,286047005.7,N
1513084355.5,286047003.8,N
1513084375.3,286046996.7,N
1513084395.1,286046996.6,N
1513084415.8,286046997.7,N
1513084435.7,286046998.7,N
1513084455.5,286046998.4,N
1513084475.3,286047001.7,N
1513084495.2,286046999.4,N
1513084515.9,286046995.7,N
1513084535.7,286046994.4,N
1513084555.6,286046995.2,N
1513084575.4,286047000.7,N
1513084595.2,286047001.4,N
1513084615.1,286047004.3,N
1513084616.0,286047004.3,N
1513084635.8,286047001.6,N
1513084655.6,286047002.1,N
1513084675.5,286047001.6,N
1513084695.3,286047003.1,N
1513084715.1,286047000.1,N
1513084735.8,286046997.6,N
1513084755.7,286046995.9,N
1513084775.5,286046997.6,N
1513084795.3,286046993.9,N
1513084815.2,286046990.5,N
1513084835.0,286046995.4,N
1513084835.9,286046995.4,N
1513084855.7,286046999.3,N
1513084875.6,286046999.6,N
1513084895.4,286047000.1,N
1513084915.2,286046997.7,N
1513084935.1,286046997.3,N
1513084936.0,286046997.3,N
1513084955.8,286046998.3,N
1513084975.6,286046995.9,N
1513084995.5,286046995.1,N
1513085015.3,286046997.5,N
1513085035.1,286047001.0,N
1513085055.9,286047004.3,N
1513085075.7,286047004.7,N
1513085095.5,286047005.3,N
1513085115.3,286047002.9,N
1513085135.2,286047007.2,N
1513085155.0,286047007.2,N
1513085155.9,286047007.2,N
1513085175.7,286047007.6,N
1513085195.6,286047004.2,N
1513085215.4,286047000.2,N
1513085235.2,286047002.0,N
1513085255.1,286047006.0,N
1513085256.0,286047006.0,N
1513085275.8,286047004.1,N
1513085295.6,286047000.5,N
1513085315.5,286046997.3,N
1513085335.3,286046994.9,N
1513085355.1,286046995.4,N
1513085375.9,286046996.7,N
1513085395.7,286046999.7,N
1513085415.5,286047003.4,N
1513085435.4,286047003.2,N
1513085455.2,286047003.2,N
1513085475.0,286046998.4,N
1513085475.9,286046998.4,N
1513085495.8,286046999.4,N
1513085515.6,286047000.2,N
1513085535.4,286046999.7,N
1513085555.2,286047000.7,N
1513085575.1,286047000.3,N
1513085576.0,286047000.3,N
1513085595.8,286047002.4,N
1513085615.6,286047009.0,N
1513085635.5,286047005.6,N
1513085655.3,286047004.0,N
1513085675.1,286047001.7,N
1513085695.9,286046999.0,N
1513085715.7,286046999.3,N
1513085735.5,286046999.6,N
1513085755.4,286046999.8,N
1513085775.2,286047001.5,N
1513085795.0,286047001.5,N
1513085795.9,286047001.5,N
1513085815.8,286047000.9,N
1513085835.6,286047001.8,N
1513085855.4,286047004.7,N
1513085875.3,286047006.8,N
1513085895.1,286047007.0,N
1513085896.0,286047007.0,N
1513085915.8,286047006.3,N
1513085935.7,286047005.0,N
1513085955.5,286047004.5,N
1513085975.3,286047007.5,N
1513085995.1,286047008.3,N
1513086015.9,286047008.6,N
1513086035.7,286047008.5,N
1513086055.6,286047012.0,Y
1513086075.4,286047008.1,P
1513086095.2,286047007.0,N
1513086115.0,286047007.1,P
1513086116.0,286047007.1,Y
1513086135.8,286046998.9,P
1513086155.6,286047002.3,N
1513086175.4,286046998.9,N
1513086195.3,286047001.1,N
1513086215.1,286046998.1,N
1513086235.8,286046998.4,N
1513086255.7,286046997.8,N
1513086275.5,286046997.1,N
1513086295.3,286046996.0,N
1513086315.2,286046999.6,N
1513086335.9,286047000.2,N
1513086355.7,286047003.8,N
1513086375.6,286047000.4,N
1513086395.4,286046997.2,N
1513086415.2,286047001.6,N
1513086435.0,286047006.6,N
1513086436.0,286047006.6,N
1513086455.8,286047009.4,N
1513086475.6,286047015.5,Y
1513086495.5,286047011.3,P
1513086515.3,286047010.1,N
1513086535.1,286047004.5,N
1513086555.8,286047005.0,N
1513086575.7,286047006.3,N
1513086595.5,286047011.3,Y
1513086615.3,286047004.0,P
1513086635.2,286047000.7,N
1513086655.0,286046996.6,N
1513086655.9,286046996.6,N
1513086675.7,286046999.1,N
1513086695.6,286046998.3,N
1513086715.4,286046998.5,N
1513086735.2,286047000.9,N
1513086755.1,286046995.9,N
1513086756.0,286046995.9,N
1513086775.8,286046991.9,N
1513086795.6,286046992.4,N
1513086815.5,286046994.3,N
1513086835.3,286046994.3,N
1513086855.1,286046993.9,N
1513086875.9,286046993.9,N
1513086895.7,286046991.1,N
1513086915.5,286046989.3,N
1513086935.3,286046992.2,N
1513086955.2,286046991.5,N
1513086975.0,286046996.4,N
1513086975.9,286046996.4,N
1513086995.7,286046992.0,N
1513087015.6,286046991.6,N
1513087035.4,286046986.3,Y
1513087055.2,286046993.0,P
1513087075.1,286046992.2,P
1513087076.0,286046992.2,P
1513087095.8,286046995.7,N
1513087115.6,286046996.4,N
1513087135.5,286046994.6,Y
1513087155.3,286046998.9,P
1513087175.1,286046998.4,N
1513087195.9,286046998.3,N
